| time (UTC) | temp C | wind direction | speed KPH | gust KPH | rain 1hr cm | rain 24hr cm | rain mn cm | humidity % | barometer mb |
| 20260505000542 | -17 | 0 | 0.0 | 0.0 | 0.00 | 0.00 | 0.00 | 99 | 752.0 |
| 20260504235525 | -17 | 0 | 0.0 | 0.0 | 0.00 | 0.00 | 0.00 | 99 | 752.0 |
| 20260504234458 | -17 | 0 | 0.0 | 0.0 | 0.00 | 0.00 | 0.00 | 99 | 752.0 |
| 20260504233436 | -17 | 0 | 0.0 | 0.0 | 0.00 | 0.00 | 0.00 | 99 | 752.0 |
| 20260504232414 | -17 | 0 | 0.0 | 0.0 | 0.00 | 0.00 | 0.00 | 99 | 752.0 |
| 20260504231352 | -17 | 0 | 0.0 | 0.0 | 0.00 | 0.00 | 0.00 | 99 | 751.0 |
| 20260504230330 | -17 | 0 | 0.0 | 0.0 | 0.00 | 0.00 | 0.00 | 99 | 752.0 |
| 20260504225308 | -17 | 0 | 0.0 | 0.0 | 0.00 | 0.00 | 0.00 | 99 | 752.0 |
| 20260504224247 | -17 | 0 | 0.0 | 0.0 | 0.00 | 0.00 | 0.00 | 99 | 752.0 |
| 20260504223225 | -17 | 0 | 0.0 | 0.0 | 0.00 | 0.00 | 0.00 | 99 | 752.0 |
| 20260504222202 | -17 | 0 | 0.0 | 0.0 | 0.00 | 0.00 | 0.00 | 99 | 751.0 |
| 20260504221140 | -17 | 0 | 0.0 | 0.0 | 0.00 | 0.00 | 0.00 | 99 | 751.0 |
| 20260504220118 | -17 | 0 | 0.0 | 0.0 | 0.00 | 0.00 | 0.00 | 99 | 752.0 |
| 20260504214618 | -17 | 0 | 0.0 | 0.0 | 0.00 | 0.00 | 0.00 | 99 | 752.0 |
| 20260504210609 | -17 | 0 | 0.0 | 0.0 | 0.00 | 0.00 | 0.00 | 99 | 752.0 |
| 20260504204243 | -17 | 0 | 0.0 | 0.0 | 0.00 | 0.00 | 0.00 | 99 | 752.0 |
| 20260504202554 | -17 | 0 | 0.0 | 0.0 | 0.00 | 0.00 | 0.00 | 99 | 752.0 |
| 20260504201540 | -17 | 0 | 0.0 | 0.0 | 0.00 | 0.00 | 0.00 | 99 | 752.0 |
| 20260504200518 | -17 | 0 | 0.0 | 0.0 | 0.00 | 0.00 | 0.00 | 99 | 752.0 |
| 20260504195449 | -17 | 0 | 0.0 | 0.0 | 0.00 | 0.00 | 0.00 | 99 | 752.0 |
| 20260504194424 | -17 | 0 | 0.0 | 0.0 | 0.00 | 0.00 | 0.00 | 99 | 751.0 |
| 20260504193403 | -17 | 0 | 0.0 | 0.0 | 0.00 | 0.00 | 0.00 | 99 | 751.0 |
| 20260504192340 | -17 | 0 | 0.0 | 0.0 | 0.00 | 0.00 | 0.00 | 99 | 752.0 |
| 20260504191318 | -17 | 0 | 0.0 | 0.0 | 0.00 | 0.00 | 0.00 | 99 | 751.0 |
| 20260504190256 | -17 | 0 | 0.0 | 0.0 | 0.00 | 0.00 | 0.00 | 99 | 751.0 |
| 20260504190212 | -17 | 0 | 0.0 | 0.0 | 0.00 | 0.00 | 0.00 | 99 | 751.0 |
| 20260504184207 | -17 | 0 | 0.0 | 0.0 | 0.00 | 0.00 | 0.00 | 99 | 751.0 |
| 20260504183155 | -17 | 0 | 0.0 | 0.0 | 0.00 | 0.00 | 0.00 | 99 | 751.0 |
| 20260504182124 | -17 | 0 | 0.0 | 0.0 | 0.00 | 0.00 | 0.00 | 99 | 751.0 |
| 20260504181101 | -17 | 0 | 0.0 | 0.0 | 0.00 | 0.00 | 0.00 | 99 | 751.0 |
| 20260504180039 | -17 | 0 | 0.0 | 0.0 | 0.00 | 0.00 | 0.00 | 99 | 750.0 |
| 20260504175020 | -17 | 0 | 0.0 | 0.0 | 0.00 | 0.00 | 0.00 | 99 | 751.0 |
| 20260504173955 | -17 | 0 | 0.0 | 0.0 | 0.00 | 0.00 | 0.00 | 99 | 751.0 |
| 20260504170936 | -17 | 0 | 0.0 | 0.0 | 0.00 | 0.00 | 0.00 | 99 | 751.0 |
| 20260504150512 | -17 | 0 | 0.0 | 0.0 | 0.00 | 0.00 | 0.00 | 99 | 751.0 |
| 20260504141321 | -17 | 0 | 0.0 | 0.0 | 0.00 | 0.00 | 0.00 | 99 | 751.0 |
| 20260504140533 | -17 | 0 | 0.0 | 0.0 | 0.00 | 0.00 | 0.00 | 99 | 750.0 |
| 20260504130806 | -17 | 0 | 0.0 | 0.0 | 0.00 | 0.00 | 0.00 | 99 | 751.0 |
| 20260504100428 | -17 | 0 | 0.0 | 0.0 | 0.00 | 0.00 | 0.00 | 85 | 740.0 |
| 20260504050438 | -17 | 0 | 0.0 | 0.0 | 0.00 | 0.00 | 0.00 | 67 | 737.0 |
| 20260504045415 | -17 | 0 | 0.0 | 0.0 | 0.00 | 0.00 | 0.00 | 72 | 737.0 |
| 20260504044354 | -17 | 0 | 0.0 | 0.0 | 0.00 | 0.00 | 0.00 | 77 | 737.0 |
| 20260504043332 | -17 | 0 | 0.0 | 0.0 | 0.00 | 0.00 | 0.00 | 76 | 737.0 |
| 20260504042309 | -17 | 0 | 0.0 | 0.0 | 0.00 | 0.00 | 0.00 | 78 | 737.0 |
| 20260504041252 | -17 | 0 | 0.0 | 0.0 | 0.00 | 0.00 | 0.00 | 77 | 738.0 |
| 20260504040225 | -17 | 0 | 0.0 | 0.0 | 0.00 | 0.00 | 0.00 | 78 | 738.0 |
| 20260504035203 | -17 | 0 | 0.0 | 0.0 | 0.00 | 0.00 | 0.00 | 81 | 739.0 |
| 20260504034141 | -17 | 0 | 0.0 | 0.0 | 0.00 | 0.00 | 0.00 | 83 | 739.0 |
| 20260504033119 | -17 | 0 | 0.0 | 0.0 | 0.00 | 0.00 | 0.00 | 87 | 739.0 |
| 20260504032057 | -17 | 0 | 0.0 | 0.0 | 0.00 | 0.00 | 0.00 | 92 | 741.0 |
| 20260504031035 | -17 | 0 | 0.0 | 0.0 | 0.00 | 0.00 | 0.00 | 91 | 740.0 |
| 20260504030013 | -17 | 0 | 0.0 | 0.0 | 0.00 | 0.00 | 0.00 | 90 | 741.0 |
| 20260504024953 | -17 | 0 | 0.0 | 0.0 | 0.00 | 0.00 | 0.00 | 92 | 742.0 |
| 20260504024220 | -17 | 0 | 0.0 | 0.0 | 0.00 | 0.00 | 0.00 | 93 | 742.0 |
| 20260504020903 | -17 | 0 | 0.0 | 0.0 | 0.00 | 0.00 | 0.00 | 99 | 745.0 |
| 20260504015849 | -17 | 0 | 0.0 | 0.0 | 0.00 | 0.00 | 0.00 | 99 | 746.0 |
| 20260504014843 | -17 | 0 | 0.0 | 0.0 | 0.00 | 0.00 | 0.00 | 99 | 747.0 |
| 20260504013757 | -17 | 0 | 0.0 | 0.0 | 0.00 | 0.00 | 0.00 | 99 | 747.0 |
| 20260504012210 | -17 | 0 | 0.0 | 0.0 | 0.00 | 0.00 | 0.00 | 99 | 748.0 |
| 20260504004442 | -17 | 0 | 0.0 | 0.0 | 0.00 | 0.00 | 0.00 | 99 | 748.0 |
| 20260504003415 | -17 | 0 | 0.0 | 0.0 | 0.00 | 0.00 | 0.00 | 99 | 749.0 |
| 20260504002354 | -17 | 0 | 0.0 | 0.0 | 0.00 | 0.00 | 0.00 | 99 | 749.0 |
| 20260504001331 | -17 | 0 | 0.0 | 0.0 | 0.00 | 0.00 | 0.00 | 99 | 749.0 |